Onweer radar Meer informatie blitzortung!


Regen radar Meer informatie rain snow radar


Bezoek onze andere website:

Template documentation
and downloads

And another site



15 daagse weersverwachting Porsgrunn (NO)

  • Overzicht
  • Per uur
  • 15 dagen
  • Extra
  • Vergelijk
  • Kaarten
  • Dagkaart
  • Meer »
  • Info
  • Statistieken
  • Directe link
    Temp 6h Neerslag Wind  
 08:57     16:09    Daglengte: 7:12 Vandaag
19:00
-0°
16.5 mm
3
warningclass
 08:55     16:12    Daglengte: 7:17 Morgen
01:00
23.7 mm
3
warningclass
07:00
14.7 mm
3
warningclass
13:00
17.9 mm
4
warningclass
19:00
21.9 mm
3
warningclass
 08:53     16:14    Daglengte: 7:21 Donderdag 21 Jan
01:00
27.7 mm
2
warningclass
07:00
29.0 mm
4
13:00
40.8 mm
7
19:00
48.6 mm
7
 08:51     16:16    Daglengte: 7:25 Vrijdag 22 Jan
01:00
68.1 mm
7
07:00
93.0 mm
5
Locatie info
Region: Telemark
Latitude: 59.1444°N
Longitude: 9.6589°E
9 masl
Postcode: 3915
Temp/Neerslag /Baro Onweer/DauwpuntSneeuw
    Temp Baro 1h Neerslag Dauwpunt Wind UV BewolkingSneeuw  
 08:57     16:09    Daglengte: 7:12 Vandaag
14:00
-0°
Voelt als: -4.4°
998.8 hPa
48%
-1.7°
3
Windvlaag: 5.1 m/s
89%16 cm
15:00
-0°
Voelt als: -4.3°
998.5 hPa 1.9 mm
82%
-1.5°
3
Windvlaag: 5.6 m/s
85%17 cm warningclass
16:00
-0°
Voelt als: -4.1°
998.2 hPa 2.4 mm
82%
-1.5°
3
Windvlaag: 5.5 m/s
83%19 cm warningclass
17:00
-0°
Voelt als: -3.9°
998.0 hPa 3.6 mm
82%
-1.4°
3
Windvlaag: 5.5 m/s
87%20 cm warningclass
18:00
-0°
Voelt als: -3.8°
997.8 hPa 4.1 mm
82%
-1.3°
3
Windvlaag: 5.1 m/s
86%21 cm warningclass
19:00
-0°
Voelt als: -3.9°
997.5 hPa 4.5 mm
82%
-1.2°
3
Windvlaag: 5.4 m/s
83%22 cm warningclass
20:00
-0°
Voelt als: -3.4°
997.2 hPa 4.8 mm
82%
-1.0°
3
Windvlaag: 4.9 m/s
88%24 cm warningclass
21:00
Voelt als: -3.2°
996.9 hPa 3.5 mm
82%
-0.6°
3
Windvlaag: 4.9 m/s
90%24 cm warningclass
22:00
Voelt als: -2.9°
996.9 hPa 3.5 mm
82%
-0.2°
3
Windvlaag: 4.5 m/s
91%23 cm warningclass
23:00
Voelt als: -2.7°
996.9 hPa 4.8 mm
82%
0.4°
3
Windvlaag: 4.7 m/s
91%23 cm warningclass
 08:55     16:12    Daglengte: 7:17 Morgen
00:00
Voelt als: -2.4°
996.8 hPa 3.5 mm
82%
0.6°
3
Windvlaag: 4.7 m/s
91%23 cm warningclass
01:00
Voelt als: -2.2°
996.6 hPa 3.6 mm
82%
0.8°
3
Windvlaag: 3.7 m/s
91%22 cm warningclass
02:00
Voelt als: -2.0°
996.1 hPa 5.0 mm
82%
0.9°
3
Windvlaag: 3.1 m/s
91%22 cm warningclass
03:00
Voelt als: -2.5°
995.7 hPa 4.9 mm
82%
0.8°
3
Windvlaag: 4.1 m/s
91%22 cm warningclass
04:00
Voelt als: -2.7°
995.3 hPa
82%
0.5°
3
Windvlaag: 4.4 m/s
91%21 cm
05:00
Voelt als: -2.5°
994.8 hPa 4.8 mm
82%
0.4°
3
Windvlaag: 4.6 m/s
91%21 cm warningclass
06:00
Voelt als: -2.8°
994.4 hPa
82%
0.4°
3
Windvlaag: 3.5 m/s
91%21 cm
07:00
Voelt als: -2.9°
993.8 hPa
81%
0.1°
3
Windvlaag: 3.7 m/s
91%21 cm
08:00
Voelt als: -3.2°
993.3 hPa
82%
0.0°
3
Windvlaag: 5 m/s
91%21 cm
09:00
Voelt als: -3.6°
992.7 hPa
82%
-0.0°
4
Windvlaag: 5.7 m/s
91%21 cm
10:00
Voelt als: -3.8°
992.0 hPa 5.2 mm
82%
-0.1°
4
Windvlaag: 5.8 m/s
91%21 cm warningclass
11:00
Voelt als: -3.8°
991.2 hPa 5.3 mm
82%
-0.0°
4
Windvlaag: 6.4 m/s
91%21 cm warningclass
12:00
Voelt als: -3.7°
990.4 hPa 3.8 mm
82%
0.0°
4
Windvlaag: 6.7 m/s
89%21 cm warningclass
13:00
Voelt als: -3.7°
989.6 hPa 3.7 mm
82%
0.0°
4
Windvlaag: 5.9 m/s
89%20 cm warningclass
14:00
Voelt als: -3.7°
988.7 hPa 3.6 mm
82%
-0.1°
4
Windvlaag: 6 m/s
88%20 cm warningclass
15:00
Voelt als: -3.5°
988.1 hPa 3.7 mm
82%
-0.1°
4
Windvlaag: 6.3 m/s
90%20 cm warningclass
16:00
Voelt als: -3.5°
987.7 hPa 3.6 mm
82%
-0.2°
4
Windvlaag: 5.9 m/s
91%19 cm warningclass
17:00
Voelt als: -3.3°
987.2 hPa 3.7 mm
82%
-0.2°
4
Windvlaag: 5.2 m/s
89%19 cm warningclass
18:00
Voelt als: -3.0°
986.9 hPa 3.7 mm
82%
-0.3°
3
Windvlaag: 5 m/s
91%19 cm warningclass
19:00
Voelt als: -3.0°
986.5 hPa 3.6 mm
82%
-0.1°
3
Windvlaag: 4.2 m/s
91%19 cm warningclass
20:00
Voelt als: -2.7°
986.1 hPa 5.3 mm
82%
-0.1°
3
Windvlaag: 3.6 m/s
91%19 cm warningclass
21:00
Voelt als: -2.5°
986.0 hPa 5.5 mm
82%
-0.1°
3
Windvlaag: 2.7 m/s
91%19 cm warningclass
22:00
Voelt als: -2.6°
985.7 hPa 4.1 mm
82%
-0.1°
3
Windvlaag: 1.7 m/s
91%19 cm warningclass
23:00
Voelt als: -2.3°
985.4 hPa 4.2 mm
82%
0.0°
3
Windvlaag: 1.8 m/s
91%20 cm warningclass
 08:53     16:14    Daglengte: 7:21 Donderdag 21 Jan
00:00
Voelt als: -2.0°
984.8 hPa 4.4 mm
82%
0.1°
2
Windvlaag: 2.3 m/s
91%20 cm warningclass
01:00
Voelt als: -1.8°
984.3 hPa 4.3 mm
82%
0.3°
2
Windvlaag: 2.4 m/s
91%21 cm warningclass
02:00
Voelt als: -1.6°
983.8 hPa 4.5 mm
82%
0.6°
2
Windvlaag: 2.3 m/s
91%22 cm warningclass
03:00
Voelt als: -1.7°
983.5 hPa 4.5 mm
82%
0.8°
2
Windvlaag: 2.7 m/s
91%22 cm warningclass
04:00
Voelt als: -1.7°
982.7 hPa 4.8 mm
82%
1.1°
3
Windvlaag: 3.8 m/s
91%23 cm
05:00
Voelt als: -1.3°
982.1 hPa 5.0 mm
82%
1.4°
3
Windvlaag: 5.3 m/s
91%23 cm
06:00
Voelt als: -1.4°
981.6 hPa 5.2 mm
82%
1.8°
4
Windvlaag: 5.8 m/s
91%23 cm
07:00
Voelt als: -1.2°
981.1 hPa 5.0 mm
82%
1.8°
4
Windvlaag: 5.2 m/s
91%24 cm
08:00
Voelt als: -1.2°
980.4 hPa 5.1 mm
82%
1.9°
4
Windvlaag: 5 m/s
91%24 cm
09:00
Voelt als: -1.1°
979.5 hPa 5.3 mm
82%
2.0°
4
Windvlaag: 4.9 m/s
91%24 cm
10:00
Voelt als: -1.6°
979.0 hPa 6.4 mm
100%
1.3°
4
Windvlaag: 5.8 m/s
100%25 cm
11:00
Voelt als: -1.4°
978.0 hPa 7.5 mm
100%
1.9°
4
Windvlaag: 7 m/s
100%26 cm
12:00
Voelt als: -1.9°
976.9 hPa 8.1 mm
100%
2.1°
6
Windvlaag: 10.4 m/s
100%27 cm
13:00
Voelt als: -2.0°
975.7 hPa 8.4 mm
100%
2.2°
7
Windvlaag: 12.5 m/s
100%28 cm
14:00
Voelt als: -1.8°
975.4 hPa 7.7 mm
100%
2.1°
7
Windvlaag: 15.8 m/s
87%29 cm
15:00
Voelt als: -1.7°
975.3 hPa 7.2 mm
100%
1.8°
6
Windvlaag: 13.6 m/s
96%28 cm
16:00
Voelt als: -2.2°
975.1 hPa 7.5 mm
100%
1.6°
7
Windvlaag: 14.7 m/s
91%27 cm
17:00
Voelt als: -2.5°
975.0 hPa 10.8 mm
97%
1.5°
7
Windvlaag: 15.7 m/s
95%27 cm
18:00
Voelt als: -2.6°
975.1 hPa 7.7 mm
97%
1.0°
7
Windvlaag: 16.2 m/s
96%26 cm
19:00
Voelt als: -2.5°
975.2 hPa 7.7 mm
100%
-0.4°
7
Windvlaag: 15.8 m/s
89%26 cm
20:00
Voelt als: -2.4°
975.1 hPa 10.9 mm
100%
0.2°
8
Windvlaag: 14.6 m/s
100%26 cm
21:00
Voelt als: -2.5°
975.1 hPa 11.0 mm
100%
0.6°
8
Windvlaag: 15.8 m/s
100%25 cm
22:00
Voelt als: -2.4°
975.0 hPa 11.3 mm
100%
1.0°
8
Windvlaag: 16.5 m/s
100%26 cm warningclass
23:00
Voelt als: -2.2°
974.9 hPa 11.3 mm
100%
1.4°
8
Windvlaag: 16.9 m/s
98%26 cm
 08:51     16:16    Daglengte: 7:25 Vrijdag 22 Jan
00:00
Voelt als: -2.0°
975.0 hPa 11.6 mm
100%
1.7°
7
Windvlaag: 16.3 m/s
98%26 cm
01:00
Voelt als: -1.7°
974.9 hPa 11.9 mm
100%
2.1°
7
Windvlaag: 7.9 m/s
100%26 cm
02:00
Voelt als: -1.6°
974.7 hPa 12.2 mm
100%
2.2°
6
Windvlaag: 16.1 m/s
99%26 cm
03:00
Voelt als: -1.6°
974.4 hPa 12.6 mm
100%
2.2°
6
Windvlaag: 14.6 m/s
100%25 cm
04:00
Voelt als: -1.7°
974.1 hPa 20.9 mm
100%
2.0°
6
Windvlaag: 13.6 m/s
100%25 cm
05:00
Voelt als: -1.8°
973.7 hPa 12.6 mm
100%
2.0°
6
Windvlaag: 11.7 m/s
100%24 cm
06:00
Voelt als: -1.9°
973.5 hPa 13.0 mm
100%
1.9°
5
Windvlaag: 11.1 m/s
100%24 cm
07:00
Voelt als: -2.0°
973.3 hPa 21.8 mm
100%
1.6°
5
Windvlaag: 5.2 m/s
99%23 cm
08:00
Voelt als: -1.8°
972.4 hPa 21.9 mm
100%
1.3°
4
Windvlaag: 12.9 m/s
97%23 cm
09:00
Voelt als: -2.1°
972.2 hPa 22.0 mm
100%
1.0°
4
Windvlaag: 12.3 m/s
97%23 cm
10:00
Voelt als: -2.1°
972.1 hPa 21.7 mm
100%
1.0°
4
Windvlaag: 10.7 m/s
98%23 cm
11:00
Voelt als: -2.0°
972.1 hPa 21.0 mm
100%
1.0°
4
Windvlaag: 9.4 m/s
97%23 cm
12:00
Voelt als: -1.8°
972.0 hPa 20.9 mm
100%
0.9°
4
Windvlaag: 8.7 m/s
85%23 cm
13:00
Voelt als: -1.7°
971.8 hPa 20.9 mm
100%
1.0°
4
Windvlaag: 1.4 m/s
93%23 cm
Temp/Neerslag /Baro Onweer/DauwpuntSneeuw
    Temp Baro Neerslag Dauwpunt Wind BewolkingSneeuw  
 08:57     16:09    Daglengte: 7:12 Vandaag
16:00
-0°
Voelt als: -4.1°
998.2 hPa 4.3 mm -1.5°
3
83%19 cm warningclass
19:00
-0°
Voelt als: -3.9°
997.5 hPa 12.2 mm -1.2°
3
83%22 cm warningclass
22:00
Voelt als: -2.9°
996.9 hPa 11.8 mm -0.2°
3
91%23 cm warningclass
 08:55     16:12    Daglengte: 7:17 Morgen
01:00
Voelt als: -2.2°
996.6 hPa 11.9 mm 0.8°
3
91%22 cm warningclass
04:00
Voelt als: -2.7°
995.3 hPa 9.8 mm 0.5°
3
91%21 cm warningclass
07:00
Voelt als: -2.9°
993.8 hPa 4.8 mm 0.1°
3
91%21 cm warningclass
10:00
Voelt als: -3.8°
992.0 hPa 5.2 mm -0.1°
4
91%21 cm warningclass
13:00
Voelt als: -3.7°
989.6 hPa 12.7 mm 0.0°
4
89%20 cm warningclass
16:00
Voelt als: -3.5°
987.7 hPa 10.9 mm -0.2°
4
91%19 cm warningclass
19:00
Voelt als: -3.0°
986.5 hPa 11.0 mm -0.1°
3
91%19 cm warningclass
22:00
Voelt als: -2.6°
985.7 hPa 14.8 mm -0.1°
3
91%19 cm warningclass
 08:53     16:14    Daglengte: 7:21 Donderdag 21 Jan
01:00
Voelt als: -1.8°
984.3 hPa 12.8 mm 0.3°
2
91%21 cm warningclass
04:00
Voelt als: -1.7°
982.7 hPa 13.8 mm 1.1°
3
91%23 cm
07:00
Voelt als: -1.2°
981.1 hPa 15.2 mm 1.8°
4
91%24 cm
10:00
Voelt als: -1.6°
979.0 hPa 16.8 mm 1.3°
4
100%25 cm
13:00
Voelt als: -2.0°
975.7 hPa 24.0 mm 2.2°
7
100%28 cm
16:00
Voelt als: -2.2°
975.1 hPa 22.4 mm 1.6°
7
91%27 cm
19:00
Voelt als: -2.5°
975.2 hPa 26.2 mm -0.4°
7
89%26 cm
22:00
Voelt als: -2.4°
975.0 hPa 33.3 mm 1.0°
8
100%26 cm warningclass
 08:51     16:16    Daglengte: 7:25 Vrijdag 22 Jan
01:00
Voelt als: -1.7°
974.9 hPa 34.8 mm 2.1°
7
100%26 cm
04:00
Voelt als: -1.7°
974.1 hPa 45.6 mm 2.0°
6
100%25 cm
07:00
Voelt als: -2.0°
973.3 hPa 47.3 mm 1.6°
5
99%23 cm
10:00
Voelt als: -2.1°
972.1 hPa 65.5 mm 1.0°
4
98%23 cm
13:00
Voelt als: -1.7°
971.8 hPa 62.7 mm 1.0°
4
93%23 cm
16:00
Voelt als: -0.2°
974.2 hPa 70.8 mm 1.9°
3
90%
19:00
Voelt als: 0.0°
974.3 hPa 72.2 mm 1.8°
2
90%
22:00
Voelt als: -0.6°
976.6 hPa 74.8 mm 1.3°
3
88%
 08:50     16:19    Daglengte: 7:29 Zaterdag 23 Jan
01:00
Voelt als: -1.0°
979.1 hPa 75.1 mm 0.7°
3
86%
04:00
Voelt als: -1.1°
979.8 hPa 75.4 mm 0.7°
3
88%
07:00
Voelt als: -1.3°
980.6 hPa 75.5 mm 0.7°
3
90%
10:00
Voelt als: -1.1°
982.3 hPa 75.5 mm 0.2°
3
89%
13:00
Voelt als: -0.7°
983.9 hPa 75.5 mm -0.1°
3
88%
16:00
Voelt als: -1.2°
985.6 hPa 75.5 mm -0.4°
2
88%
19:00
Voelt als: -1.3°
987.2 hPa 75.5 mm -0.7°
1
88% warningclass
22:00
-1°
Voelt als: -1.8°
987.4 hPa 75.5 mm -1.7°
1
87% warningclass
 08:48     16:21    Daglengte: 7:33 Zondag 24 Jan
01:00
-2°
Voelt als: -2.1°
987.5 hPa 75.5 mm -2.6°
1
86% warningclass
04:00
-2°
Voelt als: -2.2°
987.8 hPa 75.5 mm -2.9°
1
88% warningclass
07:00
-2°
Voelt als: -2.4°
988.1 hPa 75.5 mm -3.3°
1
90% warningclass
10:00
-1°
Voelt als: -2.1°
989.8 hPa 75.5 mm -2.9°
1
91% warningclass
13:00
-0°
Voelt als: -1.6°
991.3 hPa 75.5 mm -2.3°
1
91% warningclass
16:00
-1°
Voelt als: -2.2°
992.4 hPa 75.5 mm -2.7°
1
91% warningclass
19:00
-2°
Voelt als: -3.1°
993.6 hPa 75.5 mm -3.2°
1
91% warningclass
22:00
-2°
Voelt als: -3.1°
994.3 hPa 75.5 mm -3.5°
1
90% warningclass
 08:46     16:23    Daglengte: 7:37 Maandag 25 Jan
01:00
-2°
Voelt als: -3.1°
995.0 hPa 75.5 mm -3.8°
1
90% warningclass
04:00
-3°
Voelt als: -3.9°
994.6 hPa 75.5 mm -4.5°
1
89% warningclass
07:00
-3°
Voelt als: -4.6°
994.3 hPa 75.5 mm -5.2°
1
89% warningclass
10:00
-3°
Voelt als: -3.3°
996.2 hPa 75.5 mm -5.1°
1
77% warningclass
13:00
-2°
Voelt als: -1.6°
998.0 hPa 75.5 mm -4.9°
1
65% warningclass
16:00
-2°
Voelt als: -3.3°
999.0 hPa 75.5 mm -4.9°
1
75% warningclass
19:00
-3°
Voelt als: -5.0°
1000.1 hPa 75.5 mm -5.0°
1
85% warningclass
22:00
-4°
Voelt als: -5.1°
1000.8 hPa 75.5 mm -5.7°
1
86% warningclass
 08:44     16:26    Daglengte: 7:42 Dinsdag 26 Jan
01:00
-4°
Voelt als: -5.0°
1001.5 hPa 75.5 mm -6.4°
1
86% warningclass
04:00
-5°
Voelt als: -5.9°
1001.5 hPa 75.5 mm -7.0°
1
80% warningclass
07:00
-6°
Voelt als: -6.7°
1001.4 hPa 75.5 mm -7.6°
1
74% warningclass
10:00
-4°
Voelt als: -5.0°
1001.1 hPa 75.5 mm -7.1°
1
42% warningclass
13:00
-3°
Voelt als: -2.9°
1000.7 hPa 150.9 mm -6.4°
1
9% warningclass
19:00
-3°
Voelt als: -4.5°
1002.5 hPa 150.9 mm -4.8°
1
83% warningclass
 08:41     16:28    Daglengte: 7:47 Woensdag 27 Jan
01:00
-4°
Voelt als: -5.3°
1002.2 hPa 150.9 mm -5.8°
1
87% warningclass
07:00
-5°
Voelt als: -6.6°
1001.3 hPa 150.9 mm -6.9°
1
89% warningclass
13:00
-3°
Voelt als: -5.4°
1003.7 hPa 150.9 mm -6.3°
2
86% warningclass
19:00
-5°
Voelt als: -7.5°
1003.8 hPa 150.9 mm -7.3°
2
90% warningclass
 08:39     16:31    Daglengte: 7:52 Donderdag 28 Jan
01:00
-8°
Voelt als: -9.7°
1003.8 hPa 151.0 mm -10.0°
1
2% warningclass
07:00
-8°
Voelt als: -10.6°
1004.4 hPa 152.2 mm -10.8°
1
2% warningclass
13:00
-4°
Voelt als: -4.7°
1002.7 hPa 153.6 mm -7.6°
1
80% warningclass
19:00
-6°
Voelt als: -8.2°
1004.1 hPa 158.5 mm -8.2°
1
74% warningclass
 08:37     16:33    Daglengte: 7:56 Vrijdag 29 Jan
01:00
-6°
Voelt als: -8.5°
1003.3 hPa 159.3 mm -6.6°
1
1% warningclass
07:00
-6°
Voelt als: -8.2°
1001.7 hPa 159.7 mm -6.2°
1
1% warningclass
13:00
-3°
Voelt als: -6.7°
1005.9 hPa 1.5 mm -4.8°
3
80%
19:00
-4°
Voelt als: -7.7°
1006.1 hPa 1.5 mm -5.7°
2
71%
 08:35     16:36    Daglengte: 8:01 Zaterdag 30 Jan
01:00
-5°
Voelt als: -9.4°
1006.3 hPa 1.2 mm -6.5°
3
70%
07:00
-6°
Voelt als: -10.8°
1005.6 hPa 0.9 mm -7.3°
3
63%
13:00
-4°
Voelt als: -7.7°
1005.4 hPa 0.6 mm -5.2°
3
69%
19:00
-5°
Voelt als: -9.0°
1004.6 hPa 0.5 mm -6.0°
3
79%
 08:33     16:38    Daglengte: 8:05 Zondag 31 Jan
01:00
-5°
Voelt als: -9.1°
1003.9 hPa 1.7 mm -6.3°
3
84%
07:00
-5°
Voelt als: -9.1°
1002.1 hPa 2.1 mm -6.0°
3
85%
13:00
-3°
Voelt als: -6.7°
1001.8 hPa 1.8 mm -4.0°
3
81%
19:00
-4°
Voelt als: -8.0°
1001.1 hPa 1.6 mm -4.9°
3
81%
 08:30     16:41    Daglengte: 8:11 Maandag 01 Feb
01:00
-4°
Voelt als: -8.7°
1001.2 hPa 1.5 mm -5.6°
3
81%
07:00
-5°
Voelt als: -9.3°
1000.8 hPa 1.4 mm -6.0°
3
81%
13:00
-2°
Voelt als: -6.1°
1001.0 hPa 1.3 mm -3.9°
3
80%
19:00
-3°
Voelt als: -7.1°
1001.4 hPa 1.4 mm -4.6°
3
79%
 08:28     16:43    Daglengte: 8:15 Dinsdag 02 Feb
01:00
-4°
Voelt als: -8.9°
1002.8 hPa 0.9 mm -5.9°
3
76%
07:00
-5°
Voelt als: -9.9°
1003.3 hPa 0.9 mm -6.5°
3
74%
13:00
-2°
Voelt als: -6.6°
1004.3 hPa 1.2 mm -3.9°
3
75%
19:00
-4°
Voelt als: -8.0°
1005.5 hPa 0.5 mm -5.2°
3
76%
 08:26     16:46    Daglengte: 8:20 Woensdag 03 Feb
01:00
-5°
Voelt als: -9.0°
1007.0 hPa 0.8 mm -6.1°
3
76%
07:00
-5°
Voelt als: -9.4°
1007.5 hPa 0.8 mm -6.6°
3
74%
13:00
-3°
Voelt als: -6.3°
1008.2 hPa 0.8 mm -4.3°
3
75%
  CAPE Lifted Index Hail Supercell Tornado SRH 3km CL BTM PRES CL TOP PRES Swiss DWD icon SMHI TS
 08:57     16:09    Daglengte: 7:12 Vandaag
14:00 0 J/kg 1.6 K 0 % 0 % 0 % 0 m²/s² 0 0 2.17 71
15:00 1 J/kg 2.1 K 0 % 0 % 0 % 0 m²/s² 0 0 3 71
16:00 1 J/kg 1.8 K 0 % 0 % 0 % 0 m²/s² 0 0 2.28 71
17:00 1 J/kg 2.4 K 0 % 0 % 0 % 0 m²/s² 0 0 3.3 71
18:00 2 J/kg 2.9 K 0 % 0 % 0 % 0 m²/s² 0 0 3.47 3
19:00 0 J/kg 3.3 K 0 % 0 % 0 % 0 m²/s² 0 0 3.84 3
20:00 1 J/kg 3.9 K 0 % 0 % 0 % 0 m²/s² 0 0 4.68 71
21:00 1 J/kg 4.2 K 0 % 0 % 0 % 0 m²/s² 0 0 5.28 71
22:00 1 J/kg 4.8 K 0 % 0 % 0 % 0 m²/s² 0 0 5.88 71
23:00 1 J/kg 5.3 K 0 % 0 % 0 % 0 m²/s² 0 0 7.79 71
 08:55     16:12    Daglengte: 7:17 Morgen
00:00 1 J/kg 6.4 K 0 % 0 % 0 % 0 m²/s² 0 0 9.34 71
01:00 0 J/kg 7.4 K 0 % 0 % 0 % 0 m²/s² 0 0 11.03 71
02:00 0 J/kg 8.1 K 0 % 0 % 0 % 0 m²/s² 0 0 12.93 71
03:00 1 J/kg 8.7 K 0 % 0 % 0 % 0 m²/s² 0 0 13.68 71
04:00 4 J/kg 9.2 K 0 % 0 % 0 % 0 m²/s² 0 0 14.06 71
05:00 6 J/kg 9.7 K 0 % 0 % 0 % 0 m²/s² 0 0 14.2 3
06:00 2 J/kg 10.1 K 0 % 0 % 0 % 0 m²/s² 0 0 14.87 3
07:00 1 J/kg 10.6 K 0 % 0 % 0 % 0 m²/s² 0 0 13.78 3
08:00 1 J/kg 10.8 K 0 % 0 % 0 % 0 m²/s² 0 0 13.17 3
09:00 2 J/kg 11.0 K 0 % 0 % 0 % 0 m²/s² 0 0 12.68 3
10:00 2 J/kg 11.2 K 0 % 0 % 0 % 0 m²/s² 0 0 11.68 71
11:00 3 J/kg 11.1 K 0 % 0 % 0 % 0 m²/s² 0 0 11.55 71
12:00 3 J/kg 11.1 K 0 % 0 % 0 % 0 m²/s² 0 0 11.55 71
13:00 2 J/kg 10.7 K 0 % 0 % 0 % 0 m²/s² 0 0 11.15 71
14:00 1 J/kg 10.0 K 0 % 0 % 0 % 0 m²/s² 0 0 10.45 71
15:00 0 J/kg 9.8 K 0 % 0 % 0 % 0 m²/s² 0 0 10.19 71
16:00 0 J/kg 9.5 K 0 % 0 % 0 % 0 m²/s² 0 0 9.89 71
17:00 0 J/kg 9.3 K 0 % 0 % 0 % 0 m²/s² 0 0 9.84 71
18:00 0 J/kg 9.2 K 0 % 0 % 0 % 0 m²/s² 0 0 9.8 71
19:00 0 J/kg 8.9 K 0 % 0 % 0 % 0 m²/s² 0 0 9.68 71
20:00 0 J/kg 8.4 K 0 % 0 % 0 % 0 m²/s² 0 0 9.33 71
21:00 0 J/kg 7.7 K 0 % 0 % 0 % 0 m²/s² 0 0 8.06 73
22:00 0 J/kg 6.6 K 0 % 0 % 0 % 0 m²/s² 0 0 6.93 73
23:00 0 J/kg 6.4 K 0 % 0 % 0 % 0 m²/s² 0 0 6.73 71
 08:53     16:14    Daglengte: 7:21 Donderdag 21 Jan
00:00 0 J/kg 6.5 K 0 % 0 % 0 % 0 m²/s² 0 0 6.83 71
01:00 0 J/kg 6.8 K 0 % 0 % 0 % 0 m²/s² 0 0 7.13 71
02:00 0 J/kg 5.9 K 0 % 0 % 0 % 0 m²/s² 0 0 6.2 71
03:00 0 J/kg 5.6 K 0 % 0 % 0 % 0 m²/s² 0 0 5.9 71
04:00 0 J/kg 5.0 K 0 % 0 % 0 % 0 m²/s² 0 0 5.3 71
05:00 0 J/kg 4.8 K 0 % 0 % 0 % 0 m²/s² 0 0 5.04 73
06:00 0 J/kg 4.9 K 0 % 0 % 0 % 0 m²/s² 0 0 5.17 73
07:00 0 J/kg 3.6 K 0 % 0 % 0 % 0 m²/s² 0 0 3.96 71
08:00 1 J/kg 2.6 K 0 % 0 % 0 % 0 m²/s² 0 0 2.96 57
09:00 2 J/kg 2.8 K 0 % 0 % 0 % 0 m²/s² 0 0 3.37 71
10:00 2 J/kg 3.7 K 0 % 0 % 0 % 0 m²/s² 0 0 4.63 63
11:00 1 J/kg 3.1 K 0 % 0 % 0 % 0 m²/s² 0 0 3.49 63
12:00 1 J/kg 3.7 K 0 % 0 % 0 % 0 m²/s² 0 0 4.54 63
13:00 1 J/kg 3.7 K 0 % 0 % 0 % 0 m²/s² 0 0 4.06 61
14:00 1 J/kg 4.6 K 0 % 0 % 0 % 0 m²/s² 0 0 4.96 80
15:00 12 J/kg 5.7 K 0 % 0 % 0 % 0 m²/s² 0 0 6.06 80
16:00 41 J/kg 6.4 K 0 % 0 % 0 % 0 m²/s² 0 0 9.67 61
17:00 52 J/kg 4.0 K 0 % 0 % 0 % 0 m²/s² 0 0 5.2 3
18:00 21 J/kg 3.0 K 0 % 0 % 0 % 0 m²/s² 0 0 3.51 80
19:00 4 J/kg 3.2 K 0 % 0 % 0 % 0 m²/s² 0 0 3.74 80
20:00 1 J/kg 3.3 K 0 % 0 % 0 % 0 m²/s² 0 0 3.84 80
21:00 3 J/kg 3.9 K 0 % 0 % 0 % 0 m²/s² 0 0 4.41 80
22:00 1 J/kg 5.0 K 0 % 0 % 0 % 0 m²/s² 0 0 5.51 95
23:00 1 J/kg 3.7 K 0 % 0 % 0 % 0 m²/s² 0 0 4.12 80
 08:51     16:16    Daglengte: 7:25 Vrijdag 22 Jan
00:00 1 J/kg 3.7 K 0 % 0 % 0 % 0 m²/s² 0 0 5.86 80
01:00 1 J/kg 2.4 K 0 % 0 % 0 % 0 m²/s² 0 0 2.85 80
02:00 5 J/kg 2.3 K 0 % 0 % 0 % 0 m²/s² 0 0 2.75 80
03:00 4 J/kg 2.2 K 0 % 0 % 0 % 0 m²/s² 0 0 2.62 80
04:00 17 J/kg 3.4 K 0 % 0 % 0 % 0 m²/s² 0 0 5.08 80
05:00 14 J/kg 3.4 K 0 % 0 % 0 % 0 m²/s² 0 0 5.83 3
06:00 10 J/kg 3.6 K 0 % 0 % 0 % 0 m²/s² 0 0 5.64 61
07:00 0 J/kg 3.0 K 0 % 0 % 0 % 0 m²/s² 0 0 4.17 61
08:00 0 J/kg 2.9 K 0 % 0 % 0 % 0 m²/s² 0 0 4.16 73
09:00 0 J/kg 3.0 K 0 % 0 % 0 % 0 m²/s² 0 0 4.2 73
10:00 0 J/kg 3.8 K 0 % 0 % 0 % 0 m²/s² 0 0 5.48 73
11:00 0 J/kg 4.5 K 0 % 0 % 0 % 0 m²/s² 0 0 6.72 85
12:00 0 J/kg 4.7 K 0 % 0 % 0 % 0 m²/s² 0 0 6.92 85
13:00 0 J/kg 4.1 K 0 % 0 % 0 % 0 m²/s² 0 0 5.87 85
Temp Baro Wind Neerslag
  EWN Forecast EWN WRFDA DWD ICON FMI HIRLAM MET Norway GFS
 08:57     16:09    Daglengte: 7:12 Vandaag
16:00 -0.4° 998.2 hPa 3.2 m/s 4.3 mm 0.9° 993.1 hPa 2.1 m/s 29.2 mm -1.5° 999.5 hPa 2.4 m/s -0.7 mm -0.0° 998.5 hPa 3.1 m/s 0.0 mm -0.3° 998.0 hPa 3.5 m/s -0.8° 999.3 hPa 3.0 m/s
19:00 -0.3° 997.5 hPa 3.0 m/s 12.2 mm 0.4° 992.5 hPa 2.3 m/s 50.0 mm -1.7° 998.9 hPa 2.2 m/s 0.1 mm 0.8° 997.7 hPa 2.9 m/s 0.0 mm -0.2° 997.3 hPa 3.3 m/s -1.0° 999.0 hPa 1.7 m/s
22:00 0.4° 996.9 hPa 2.9 m/s 11.8 mm 1.0° 991.9 hPa 3.1 m/s 65.7 mm -1.5° 999.1 hPa 2.4 m/s 0.6 mm 1.3° 996.8 hPa 2.7 m/s 0.0 mm 0.7° 996.9 hPa 2.9 m/s -1.1° 998.4 hPa 2.1 m/s
 08:55     16:12    Daglengte: 7:17 Morgen
01:00 0.9° 996.6 hPa 2.7 m/s 11.9 mm 0.9° 991.8 hPa 3.1 m/s 69.2 mm -1.3° 998.5 hPa 2.2 m/s 1.4 mm 1.9° 996.1 hPa 2.8 m/s 0.0 mm 1.6° 996.6 hPa 2.6 m/s -0.4° 998.4 hPa 2.2 m/s
04:00 0.8° 995.3 hPa 3.3 m/s 9.8 mm 0.2° 989.9 hPa 3.1 m/s 70.6 mm -1.4° 997.2 hPa 2.3 m/s 0.8 mm 1.7° 994.8 hPa 2.3 m/s 0.0 mm 2.4° 995.3 hPa 4.1 m/s 0.2° 995.9 hPa 3.1 m/s
07:00 0.5° 993.8 hPa 3.0 m/s 4.8 mm -0.5° 988.7 hPa 2.9 m/s 70.8 mm -1.4° 995.4 hPa 2.9 m/s 0.1 mm 1.7° 993.3 hPa 2.7 m/s 0.0 mm 1.9° 993.8 hPa 2.9 m/s 0.4° 994.2 hPa 4.1 m/s
10:00 0.4° 992.0 hPa 4.1 m/s 5.2 mm -0.2° 986.8 hPa 3.9 m/s 70.9 mm -1.2° 993.8 hPa 3.7 m/s 0.2 mm 1.4° 991.8 hPa 3.4 m/s 0.0 mm 1.4° 991.7 hPa 4.6 m/s -0.2° 992.2 hPa 5.0 m/s
13:00 0.7° 989.6 hPa 4.3 m/s 12.7 mm 0.6° 985.5 hPa 4.1 m/s 71.0 mm -0.5° 991.7 hPa 4.5 m/s 0.6 mm 1.4° 989.2 hPa 3.5 m/s 0.0 mm 1.1° 989.1 hPa 4.4 m/s -0.2° 990.3 hPa 5.5 m/s
16:00 0.6° 987.7 hPa 3.9 m/s 10.9 mm 0.4° 983.4 hPa 5.1 m/s 72.0 mm -0.4° 990.1 hPa 4.2 m/s 0.7 mm 1.3° 986.5 hPa 3.5 m/s 0.0 mm 0.9° 987.4 hPa 2.9 m/s -0.6° 988.8 hPa 5.8 m/s
19:00 0.6° 986.5 hPa 3.2 m/s 11.0 mm 0.3° 982.8 hPa 4.8 m/s 72.8 mm -0.0° 989.4 hPa 3.5 m/s 0.5 mm 1.3° 984.9 hPa 2.9 m/s 0.0 mm 0.9° 986.2 hPa 1.9 m/s -1.1° 989.3 hPa 4.9 m/s
22:00 0.6° 985.7 hPa 2.7 m/s 14.8 mm 0.1° 981.6 hPa 4.9 m/s 72.9 mm 0.0° 987.6 hPa 2.7 m/s 3.6 mm 1.2° 983.5 hPa 2.8 m/s 0.0 mm 1.0° 985.7 hPa 0.8 m/s -1.1° 988.6 hPa 4.4 m/s
 08:53     16:14    Daglengte: 7:21 Donderdag 21 Jan
01:00 0.8° 984.3 hPa 2.3 m/s 12.8 mm 0.2° 979.5 hPa 5.4 m/s 77.8 mm -0.0° 986.1 hPa 1.7 m/s 1.7 mm 1.4° 981.8 hPa 2.2 m/s 0.0 mm 1.6° 984.5 hPa 1.5 m/s -1.4° 988.0 hPa 3.3 m/s
04:00 1.4° 982.7 hPa 2.8 m/s 13.8 mm 0.3° 977.1 hPa 5.4 m/s 86.0 mm 0.1° 984.0 hPa 1.2 m/s 1.7 mm 2.0° 978.6 hPa 2.6 m/s 0.0 mm 3.5° 983.2 hPa 2.8 m/s -1.6° 986.0 hPa 2.6 m/s
07:00 2.4° 981.1 hPa 3.8 m/s 15.2 mm 0.3° 976.3 hPa 4.0 m/s 90.9 mm -0.1° 982.4 hPa 1.2 m/s 3.2 mm 5.2° 976.6 hPa 5.7 m/s 0.0 mm 4.4° 981.7 hPa 4.1 m/s -1.2° 985.1 hPa 2.5 m/s
10:00 2.0° 979.0 hPa 3.8 m/s 16.8 mm 0.6° 974.0 hPa 4.9 m/s 96.3 mm 0.6° 979.2 hPa 2.2 m/s 4.6 mm 4.5° 979.2 hPa 3.8 m/s -0.6° 981.9 hPa 3.6 m/s
13:00 2.9° 975.7 hPa 6.6 m/s 24.0 mm 1.9° 970.9 hPa 3.6 m/s 115.6 mm 1.3° 977.3 hPa 1.3 m/s 7.4 mm 4.0° 975.7 hPa 7.8 m/s 2.1° 980.1 hPa 3.2 m/s
16:00 2.8° 975.1 hPa 6.6 m/s 22.4 mm 2.6° 967.9 hPa 5.1 m/s 143.2 mm 2.2° 978.0 hPa 5.8 m/s 1.4 mm 3.6° 974.7 hPa 10.8 m/s 2.9° 979.5 hPa 5.3 m/s
19:00 2.7° 975.2 hPa 7.0 m/s 26.2 mm 2.2° 966.4 hPa 7.4 m/s 150.6 mm 1.6° 979.5 hPa 2.0 m/s 0.8 mm 4.1° 974.8 hPa 10.1 m/s 3.0° 980.2 hPa 5.1 m/s
22:00 3.0° 975.0 hPa 8.1 m/s 33.3 mm 1.8° 960.8 hPa 11.3 m/s 156.5 mm 1.6° 978.6 hPa 3.7 m/s 2.2 mm 4.0° 975.3 hPa 8.3 m/s 3.2° 978.8 hPa 6.9 m/s
 08:51     16:16    Daglengte: 7:25 Vrijdag 22 Jan
01:00 3.1° 974.9 hPa 6.6 m/s 34.8 mm 2.0° 956.6 hPa 7.9 m/s 169.4 mm 2.6° 977.7 hPa 3.9 m/s 1.2 mm 4.0° 975.9 hPa 6.5 m/s 3.3° 977.0 hPa 6.4 m/s
04:00 2.9° 974.1 hPa 5.9 m/s 45.6 mm 2.5° 955.7 hPa 6.8 m/s 182.8 mm 2.4° 975.4 hPa 4.6 m/s 1.4 mm 3.9° 975.1 hPa 5.7 m/s 3.4° 975.7 hPa 7.9 m/s
07:00 2.3° 973.3 hPa 4.9 m/s 47.3 mm 1.4° 958.5 hPa 6.5 m/s 186.1 mm 0.5° 973.6 hPa 2.0 m/s 3.0 mm 3.7° 974.4 hPa 4.9 m/s 3.0° 974.6 hPa 6.6 m/s
10:00 1.9° 972.1 hPa 4.1 m/s 65.5 mm -0.2° 960.7 hPa 4.5 m/s 186.2 mm 0.5° 972.2 hPa 1.4 m/s 5.2 mm 3.4° 974.3 hPa 4.7 m/s 2.9° 973.2 hPa 5.5 m/s
13:00 2.0° 971.8 hPa 3.8 m/s 62.7 mm 0.4° 963.4 hPa 3.3 m/s 186.2 mm 1.0° 970.7 hPa 2.7 m/s 1.0 mm 3.1° 974.3 hPa 4.4 m/s 2.8° 972.1 hPa 4.8 m/s
16:00 2.7° 974.2 hPa 2.9 m/s 70.8 mm 2.7° 974.4 hPa 3.0 m/s 2.4° 971.2 hPa 1.7 m/s 70.8 mm
19:00 2.6° 974.3 hPa 2.5 m/s 72.2 mm 2.5° 974.5 hPa 2.3 m/s 3.1° 971.7 hPa 4.5 m/s 72.2 mm
22:00 2.2° 976.6 hPa 2.7 m/s 74.8 mm 2.0° 977.0 hPa 2.2 m/s 3.5° 971.9 hPa 7.2 m/s 74.8 mm
 08:50     16:19    Daglengte: 7:29 Zaterdag 23 Jan
01:00 1.8° 979.1 hPa 2.5 m/s 75.1 mm 1.6° 979.6 hPa 2.2 m/s 3.6° 973.1 hPa 6.3 m/s 75.1 mm
04:00 1.7° 979.8 hPa 2.6 m/s 75.4 mm 1.6° 980.3 hPa 2.4 m/s 2.8° 974.2 hPa 5.2 m/s 75.4 mm
07:00 1.7° 980.6 hPa 2.9 m/s 75.5 mm 1.6° 981.0 hPa 2.6 m/s 2.7° 976.3 hPa 5.6 m/s 75.5 mm
10:00 1.9° 982.3 hPa 2.8 m/s 75.5 mm 1.9° 982.5 hPa 2.8 m/s 1.1° 979.1 hPa 3.6 m/s 75.5 mm
13:00 2.3° 983.9 hPa 3.0 m/s 75.5 mm 2.3° 984.1 hPa 2.9 m/s 2.4° 981.9 hPa 3.9 m/s 75.5 mm
16:00 1.4° 985.6 hPa 2.3 m/s 75.5 mm 1.3° 985.7 hPa 2.0 m/s 2.1° 984.6 hPa 5.5 m/s 75.5 mm
19:00 0.4° 987.2 hPa 1.5 m/s 75.5 mm 0.4° 987.2 hPa 1.2 m/s 0.3° 987.3 hPa 4.7 m/s 75.5 mm
22:00 -0.7° 987.4 hPa 1.1 m/s 75.5 mm -0.6° 987.1 hPa 0.9 m/s -1.6° 990.6 hPa 3.4 m/s 75.5 mm
 08:48     16:21    Daglengte: 7:33 Zondag 24 Jan
01:00 -1.7° 987.5 hPa 0.8 m/s 75.5 mm -1.6° 987.0 hPa 0.6 m/s -3.2° 992.5 hPa 2.5 m/s 75.5 mm
04:00 -2.1° 987.8 hPa 0.7 m/s 75.5 mm -1.9° 987.2 hPa 0.6 m/s -4.4° 994.1 hPa 2.0 m/s 75.5 mm
07:00 -2.4° 988.1 hPa 0.6 m/s 75.5 mm -2.1° 987.4 hPa 0.5 m/s -5.3° 995.8 hPa 1.9 m/s 75.5 mm
10:00 -1.5° 989.8 hPa 0.9 m/s 75.5 mm -1.1° 989.0 hPa 0.8 m/s -4.8° 997.6 hPa 1.6 m/s 75.5 mm
13:00 -0.4° 991.3 hPa 1.1 m/s 75.5 mm -0.2° 990.7 hPa 1.1 m/s -2.9° 997.9 hPa 1.3 m/s 75.5 mm
16:00 -1.1° 992.4 hPa 1.1 m/s 75.5 mm -0.8° 991.9 hPa 1.1 m/s -4.3° 998.4 hPa 1.1 m/s 75.5 mm
19:00 -1.7° 993.6 hPa 1.1 m/s 75.5 mm -1.4° 993.1 hPa 1.1 m/s -5.5° 998.8 hPa 1.6 m/s 75.5 mm
22:00 -1.9° 994.3 hPa 1.1 m/s 75.5 mm -1.5° 993.9 hPa 1.0 m/s -6.9° 999.3 hPa 1.9 m/s 75.5 mm
 08:46     16:23    Daglengte: 7:37 Maandag 25 Jan
01:00 -2.1° 995.0 hPa 1.0 m/s 75.5 mm -1.6° 994.6 hPa 0.9 m/s -7.6° 998.9 hPa 2.0 m/s 75.5 mm
04:00 -2.8° 994.6 hPa 1.0 m/s 75.5 mm -2.4° 994.2 hPa 0.9 m/s -7.5° 998.7 hPa 1.7 m/s 75.5 mm
07:00 -3.5° 994.3 hPa 1.0 m/s 75.5 mm -3.1° 993.9 hPa 1.0 m/s -7.4° 998.6 hPa 1.0 m/s 75.5 mm
10:00 -2.6° 996.2 hPa 0.8 m/s 75.5 mm -2.2° 995.8 hPa 0.8 m/s -6.6° 999.5 hPa 1.2 m/s 75.5 mm
13:00 -1.6° 998.0 hPa 0.6 m/s 75.5 mm -1.4° 997.8 hPa 0.6 m/s -3.5° 999.6 hPa 0.8 m/s 75.5 mm
16:00 -2.3° 999.0 hPa 1.0 m/s 75.5 mm -2.1° 998.9 hPa 1.0 m/s -4.6° 1000.4 hPa 0.6 m/s 75.5 mm
19:00 -3.0° 1000.1 hPa 1.4 m/s 75.5 mm -2.8° 1000.0 hPa 1.4 m/s -5.5° 1001.5 hPa 1.2 m/s 75.5 mm
22:00 -3.7° 1000.8 hPa 1.1 m/s 75.5 mm -3.4° 1000.6 hPa 1.0 m/s -6.3° 1003.0 hPa 1.4 m/s 75.5 mm
 08:44     16:26    Daglengte: 7:42 Dinsdag 26 Jan
01:00 -4.3° 1001.5 hPa 0.8 m/s 75.5 mm -4.1° 1001.3 hPa 0.7 m/s -6.8° 1003.4 hPa 1.6 m/s 75.5 mm
04:00 -5.0° 1001.5 hPa 0.8 m/s 75.5 mm -4.8° 1001.2 hPa 0.8 m/s -7.2° 1003.8 hPa 1.8 m/s 75.5 mm
07:00 -5.7° 1001.4 hPa 0.9 m/s 75.5 mm -5.5° 1001.2 hPa 0.8 m/s -7.4° 1004.0 hPa 1.7 m/s 75.5 mm
10:00 -4.4° 1001.1 hPa 0.8 m/s 75.5 mm -4.2° 1000.8 hPa 0.7 m/s -6.7° 1004.8 hPa 1.5 m/s 75.5 mm
13:00 -2.9° 1000.7 hPa 0.6 m/s 75.5 mm -2.8° 1000.4 hPa 0.6 m/s -3.5° 1004.5 hPa 0.7 m/s 75.5 mm
19:00 -3.1° 1002.5 hPa 1.1 m/s 75.5 mm -2.8° 1002.4 hPa 1.1 m/s -6.7° 1004.2 hPa 1.2 m/s 75.5 mm
 08:41     16:28    Daglengte: 7:47 Woensdag 27 Jan
01:00 -4.1° 1002.2 hPa 1.0 m/s 75.5 mm -3.7° 1002.1 hPa 0.9 m/s -8.5° 1003.4 hPa 1.7 m/s 75.5 mm
07:00 -4.9° 1001.3 hPa 1.1 m/s 75.5 mm -4.6° 1001.2 hPa 1.1 m/s -8.7° 1002.3 hPa 1.4 m/s 75.5 mm
13:00 -3.0° 1003.7 hPa 1.7 m/s 75.5 mm -2.7° 1003.8 hPa 1.7 m/s -5.9° 1002.8 hPa 1.3 m/s 75.5 mm
19:00 -4.9° 1003.8 hPa 1.6 m/s 75.5 mm -4.7° 1003.9 hPa 1.5 m/s -7.6° 1002.3 hPa 2.5 m/s 75.5 mm
 08:39     16:31    Daglengte: 7:52 Donderdag 28 Jan
01:00 -7.7° 1003.8 hPa 1.1 m/s 75.6 mm -7.8° 1004.0 hPa 0.9 m/s -7.0° 1001.8 hPa 3.7 m/s 75.6 mm
07:00 -8.5° 1004.4 hPa 1.1 m/s 76.3 mm -8.5° 1004.7 hPa 0.9 m/s -8.0° 1001.4 hPa 3.7 m/s 76.3 mm
13:00 -4.0° 1002.7 hPa 0.8 m/s 77.1 mm -3.8° 1002.8 hPa 0.6 m/s -5.6° 1002.0 hPa 3.3 m/s 77.1 mm
19:00 -5.8° 1004.1 hPa 1.4 m/s 79.5 mm -5.7° 1004.3 hPa 1.3 m/s -6.4° 1002.2 hPa 3.0 m/s 79.5 mm
 08:37     16:33    Daglengte: 7:56 Vrijdag 29 Jan
01:00 -6.1° 1003.3 hPa 1.4 m/s 79.7 mm -6.1° 1003.3 hPa 1.4 m/s 79.7 mm
07:00 -5.8° 1001.7 hPa 1.4 m/s 79.9 mm -5.8° 1001.7 hPa 1.4 m/s 79.9 mm
13:00 -3.1° 1005.9 hPa 2.6 m/s 1.5 mm
19:00 -4.1° 1006.1 hPa 2.3 m/s 1.5 mm
 08:35     16:36    Daglengte: 8:01 Zaterdag 30 Jan
01:00 -5.1° 1006.3 hPa 2.8 m/s 1.2 mm
07:00 -5.8° 1005.6 hPa 3.4 m/s 0.9 mm
13:00 -3.5° 1005.4 hPa 3.0 m/s 0.6 mm
19:00 -4.6° 1004.6 hPa 2.9 m/s 0.5 mm
 08:33     16:38    Daglengte: 8:05 Zondag 31 Jan
01:00 -4.9° 1003.9 hPa 2.8 m/s 1.7 mm
07:00 -4.7° 1002.1 hPa 2.9 m/s 2.1 mm
13:00 -2.7° 1001.8 hPa 2.9 m/s 1.8 mm
19:00 -3.8° 1001.1 hPa 3.0 m/s 1.6 mm
 08:30     16:41    Daglengte: 8:11 Maandag 01 Feb
01:00 -4.3° 1001.2 hPa 3.0 m/s 1.5 mm
07:00 -4.7° 1000.8 hPa 3.1 m/s 1.4 mm
13:00 -2.4° 1001.0 hPa 2.7 m/s 1.3 mm
19:00 -3.3° 1001.4 hPa 2.6 m/s 1.4 mm
 08:28     16:43    Daglengte: 8:15 Dinsdag 02 Feb
01:00 -4.5° 1002.8 hPa 3.0 m/s 0.9 mm
07:00 -5.0° 1003.3 hPa 3.3 m/s 0.9 mm
13:00 -2.5° 1004.3 hPa 3.2 m/s 1.2 mm
19:00 -3.8° 1005.5 hPa 3.0 m/s 0.5 mm
 08:26     16:46    Daglengte: 8:20 Woensdag 03 Feb
01:00 -4.5° 1007.0 hPa 3.0 m/s 0.8 mm
07:00 -5.0° 1007.5 hPa 2.9 m/s 0.8 mm
13:00 -2.5° 1008.2 hPa 2.8 m/s 0.8 mm
FMI Hirlam - 7.5 km EWN WRFDA - 12 km DWD ICON - 7 km GFS - 25 km Basiskaart






























































Updatetijd (Europe/Amsterdam) Resolutie Lengte Stap
FMI Hirlam 13:15, 19:15, 01:15, 07:15 7.5 km 49h 1h
EWN WRFDA 09:30, 15:30, 21:30, 03:30 12 km 73h 1h
DWD ICON 10:45, 16:45, 22:45, 04:45 7 km 75h 1h
GFS 13:00, 19:00, 01:00, 07:00 25 km 237h 3h
30+ mm
25-30 mm
20-25 mm
15-20 mm
10-15 mm
6-10 mm
4-6 mm
2-4 mm
1-2 mm
0.5-1 mm
0.2-0.5 mm
0.1-0.2 mm
30+ mm
25-30 mm
20-25 mm
15-20 mm
10-15 mm
6-10 mm
4-6 mm
2-4 mm
1-2 mm
0.5-1 mm
0.2-0.5 mm
0.1-0.2 mm
Sneeuwval
Natte sneeuw
Hagel
Vorst
30+ mm
25-30 mm
20-25 mm
15-20 mm
10-15 mm
6-10 mm
4-6 mm
2-4 mm
1-2 mm
0.5-1 mm
0.2-0.5 mm
0.1-0.2 mm
Sneeuwval
Natte sneeuw
Hagel
Vorst
Onweer
50 mm
40 mm
30 mm
26 mm
22 mm
18 mm
14 mm
10 mm
9 mm
8 mm
7 mm
6 mm
5 mm
4.5 mm
4 mm
3.5 mm
3 mm
2.5 mm
2 mm
1.5 mm
1 mm
0.8 mm
0.6 mm
0.4 mm
0.2 mm
0.05 mm
35°
30°
25°
20°
15°
10°
-5°
-10°
-15°
-20°
-25°
-30°
-35°
33> m/s
29 m/s
25 m/s
21 m/s
17 m/s
14 m/s
11 m/s
8 m/s
5 m/s
3 m/s
0 m/s
2600 J/kg
2400 J/kg
2200 J/kg
2000 J/kg
1800 J/kg
1600 J/kg
1400 J/kg
1200 J/kg
1000 J/kg
800 J/kg
600 J/kg
400 J/kg
200 J/kg
70 dBZ
65 dBZ
60 dBZ
55 dBZ
50 dBZ
45 dBZ
40 dBZ
35 dBZ
30 dBZ
25 dBZ
20 dBZ
15 dBZ
10 dBZ
5 dBZ
-1 K
-2 K
-3 K
-4 K
-5 K
-6 K
-7 K
-8 K
-9 K
950 m²/s²
900 m²/s²
850 m²/s²
800 m²/s²
750 m²/s²
700 m²/s²
650 m²/s²
600 m²/s²
550 m²/s²
500 m²/s²
450 m²/s²
400 m²/s²
350 m²/s²
300 m²/s²
250 m²/s²
200 m²/s²
150 m²/s²
100 m²/s²
46 m/s
44 m/s
42 m/s
40 m/s
38 m/s
36 m/s
34 m/s
32 m/s
30 m/s
28 m/s
26 m/s
24 m/s
22 m/s
20 m/s
16 m/s
12 m/s
8 m/s
4 m/s
30 m/s
28 m/s
26 m/s
24 m/s
22 m/s
20 m/s
18 m/s
16 m/s
14 m/s
12 m/s
10 m/s
8 m/s
6 m/s
4 m/s
2 m/s
3.0
2.8
2.6
2.4
2.2
2.0
1.8
1.6
1.4
1.2
1.0
0.8
0.6
0.4
0.2
15
14
13
12
11
10
9
8
7
6
5
4
3
2
1
90%
80%
70%
60%
50%
40%
30%
20%
10%
42
40
38
36
34
32
30
28